Regional Weather Roundup
Issued by NWS

Home | Current Version | Previous Version | Graphics & Text | Print | Product List | Glossary On
Versions: 1 2 3 4 5 6 7 8 9 10 11 12 13 14 15 16 17 18 19 20 21 22 23 24 25 26 27 28 29 30 31 32 33 34 35 36 37 38 39 40 41 42 43 44 45 46 47 48 49 50
000
ASUS43 KMPX 272110
RWRMN
WEATHER ROUNDUP FOR MINNESOTA
NATIONAL WEATHER SERVICE TWIN CITIES/CHANHASSEN MN
300 PM CST MON FEB 27 2017


NOTE: "FAIR" INDICATES FEW OR NO CLOUDS BELOW 12,000 FEET WITH NO
SIGNIFICANT WEATHER AND/OR OBSTRUCTIONS TO VISIBILITY. N/A MEANS
CURRENT SKY AND/OR WEATHER CONDITIONS ARE NOT AVAILABLE.

MNZ060>063-068>070-272200-
   Twin Cities Metro

CITY           SKY/WX    TMP DP  RH WIND       PRES   REMARKS
TWIN CITIES    CLOUDY    44  19  36 S12       29.91F
ST PAUL        PTSUNNY   44  19  36 S13       29.93F
CRYSTAL        CLOUDY    45  18  34 S13G21    29.89F
BLAINE         PTSUNNY   46  19  34 S13G18    29.89F
LAKEVILLE      CLOUDY    39  25  56 S9        29.92S
EDEN PRAIRIE   CLOUDY    44  20  38 S12       29.89F
SOUTH ST PAUL  CLOUDY    43  22  44 S8        29.92F
LAKE ELMO      FAIR      41  23  48 S13       29.93F
$$
MNZ001>005-007-008-013>017-022>024-027-028-272200-
   Northwest Minnesota

CITY           SKY/WX    TMP DP  RH WIND       PRES   REMARKS
BEMIDJI        CLOUDY    31  17  56 E5        29.83F WCI  26
HALLOCK        CLOUDY    19  16  86 N8        29.91S HAZE    WCI   9
ROSEAU         PTSUNNY   27  18  69 W7        29.88S WCI  19
WARROAD        SUNNY     27  16  63 W9        29.88S WCI  17
THIEF RVR FALL   N/A     26  18  71 MISG        N/A
CROOKSTON      SUNNY     27  18  69 N6        29.88F WCI  20
FOSSTON        SUNNY     30  21  69 CALM      29.85F
DETROIT LAKES  CLOUDY    32  25  74 SE9       29.81F WCI  24
MOORHEAD       CLOUDY    34  21  60 E7        29.81F WCI  28
PARK RAPIDS    CLOUDY    34  19  54 SE8       29.81F WCI  27
MAHNOMEN       CLOUDY    30  21  67 N3        29.82F
$$
MNZ006-009>011-018-025>026-272200-
   North Central Minnesota

CITY           SKY/WX    TMP DP  RH WIND       PRES   REMARKS
BAUDETTE       MOSUNNY   28  11  48 S5        29.86F WCI  23
FLAG ISLAND    CLOUDY    23  16  74 S13       29.85F WCI  11
INTL FALLS     CLOUDY    28   8  43 CALM      29.88F
WASKISH        CLOUDY    27  16  63 NW6       29.87S WCI  20
BIG FORK       CLOUDY    32  18  55 CALM      29.86F
LONGVILLE      CLOUDY    34  21  60 S6        29.84S WCI  29
GRAND RAPIDS   CLOUDY    34  21  59 SE9       29.87F WCI  27
CRANE LAKE     PTSUNNY   28   9  43 SW6       29.91S WCI  22
ORR            CLOUDY    30  12  47 CALM      29.85F
COOK           CLOUDY    28  18  64 CALM      29.88F
WALKER         CLOUDY    30  18  59 E5        29.83F WCI  25
$$
MNZ012-019>021-037-272200-
   Northeast Minnesota

CITY           SKY/WX    TMP DP  RH WIND       PRES   REMARKS
DULUTH         MOSUNNY   31  23  72 SE6       29.89F WCI  25
ELY            MOSUNNY   30  18  59 CALM      29.88F
HIBBING        SUNNY     30  19  63 S8        29.86F WCI  22
EVELETH        MOSUNNY   32  16  51 S8        29.88F WCI  25
DULUTH HARBOR  MOSUNNY   30  25  80 CALM      29.94F
TWO HARBORS    SUNNY     34  25  69 CALM      29.90F
SILVER BAY     MOSUNNY   32  21  64 S6        29.91F WCI  26
GRAND MARAIS     N/A     29  21  72 SE3       29.98S
G MARAIS ARPRT MOSUNNY   25  14  63 SE5       29.90S WCI  19
$$
MNZ029>031-032-039>041-046>048-054>057-064-272200-
   West Central Minnesota

CITY           SKY/WX    TMP DP  RH WIND       PRES   REMARKS
FERGUS FALLS   CLOUDY    34  25  69 E9        29.82F WCI  26
WHEATON        SUNNY     39  27  60 SE13      29.78F
MORRIS         MOSUNNY   37  27  65 SE17G24   29.76F
ALEXANDRIA     CLOUDY    38  22  52 SE13      29.79F
ELBOW LAKE     CLOUDY    36  27  70 SE9       29.77F
WADENA         CLOUDY    32  25  74 SE9       29.81F WCI  24
GLENWOOD       CLOUDY    37  25  60 SE12      29.80F
APPLETON       CLOUDY    43  23  45 SE10G18   29.77F
BENSON         CLOUDY    43  23  45 S10       29.80F
ORTONVILLE     MOSUNNY   43  27  52 SE16      29.74F
MADISON        PTSUNNY   48  25  40 S16       29.76F
WILLMAR        FAIR      45  28  53 SE10      29.82F
$$
MNZ033>034-036-042>043-049>051-058-059-272200-
   Central Minnesota

CITY           SKY/WX    TMP DP  RH WIND       PRES   REMARKS
ST CLOUD       CLOUDY    41  25  53 S10       29.85F
SAUK CENTRE    MOCLDY    37  25  62 SE10      29.82F
PAYNESVILLE    CLOUDY    41  25  53 SE8       29.84F
AITKIN         CLOUDY    36  23  60 S7        29.85F
PINE RIVER     CLOUDY    34  25  69 S6        29.88F WCI  29
BRAINERD       MOSUNNY   35  26  69 S8        29.85F WCI  29
STAPLES        CLOUDY    34  23  64 SE6       29.82F WCI  29
LONG PRAIRIE   CLOUDY    36  23  60 SE8       29.82F
LITTLE FALLS   CLOUDY    39  19  45 S6        29.84F
LITCHFIELD     MOSUNNY   45  28  53 SE7       29.85F
BUFFALO        CLOUDY    42  22  45 S8        29.88F
MAPLE LAKE     CLOUDY    43  27  54 S9        29.87F
HUTCHINSON     SUNNY     43  31  62 SE9       29.87F
$$
MNZ037-044-045-052-053-272200-
   East Central Minnesota

CITY           SKY/WX    TMP DP  RH WIND       PRES   REMARKS
PRINCETON      CLOUDY    45  21  39 S12G18    29.87F
MORA           CLOUDY    41  23  48 S13       29.89F
CAMBRIDGE      PTSUNNY   46  27  46 S13       29.86F
RUSH CITY      CLOUDY    44  20  37 S9        29.89F
MOOSE LAKE     CLOUDY    37  23  56 S6        29.86F
HINCKLEY       MOCLDY    43  23  45 SW13G22   29.88F
CLOQUET        MOSUNNY   36  21  55 S7        29.88F
MCGREGOR       CLOUDY    36  27  69 SE9       29.87F
$$
MNZ071>073-080-081-089-090-097-098-272200-
   Southwest Minnesota

CITY           SKY/WX    TMP DP  RH WIND       PRES   REMARKS
MONTEVIDEO     MOSUNNY   46  25  42 S9        29.80F
GRANITE FALLS  CLOUDY    49  27  42 S15       29.82F
CANBY          MOSUNNY   47  19  32 S15G23    29.77F
MARSHALL       MOSUNNY   48  22  35 S21       29.78F
REDWOOD FALLS  CLOUDY    47  21  35 S15       29.82F
OLIVIA         MOSUNNY   46  25  42 S12G17    29.82F
PIPESTONE      SUNNY     45  21  39 S18G24    29.76F
WINDOM         MOSUNNY   45  21  39 S10G16    29.84F
WORTHINGTON    MOSUNNY   43  24  47 S16       29.83F
JACKSON        CLOUDY    41  23  48 S12       29.87S
TRACY          CLOUDY    47  27  45 S16G24    29.80F
SLAYTON        MOSUNNY   42  26  52 S18       29.81F
$$
MNZ065>067-074>077-082>085-091>093-272200-
   South Central Minnesota

CITY           SKY/WX    TMP DP  RH WIND       PRES   REMARKS
MANKATO          N/A     39  26  59 S13       29.90F
NEW ULM        CLOUDY    43  27  52 S10       29.86F
ST JAMES       CLOUDY    39  30  70 SE10      29.88F
GLENCOE        CLOUDY    42  31  63 S6        29.87F
FARIBAULT      CLOUDY    39  25  56 S8        29.93S
OWATONNA       CLOUDY    39  25  56 SE10      29.92F
WASECA         MOSUNNY   39  25  56 S9        29.93S
ALBERT LEA     CLOUDY    37  27  65 SE7       29.92S
$$
MNZ078>079-086>088-094>096-272200-
   Southeast Minnesota

CITY           SKY/WX    TMP DP  RH WIND       PRES   REMARKS
ROCHESTER      SUNNY     38  28  67 S10       29.94F
RED WING       CLOUDY    41  19  42 SE6       29.94F
STANTON        CLOUDY    39  25  56 S7        29.93S
WINONA         SUNNY     46  21  36 S5        29.98F
AUSTIN         CLOUDY    39  28  65 S6        29.93F
PRESTON        SUNNY     40  29  65 SE12      29.95F
$$
ABBREVIATIONS USED IN REMARKS
   TC - TEMPERATURES IN CELSIUS
  WCI - WIND CHILL INDEX
   HX - HEAT INDEX
  VSB - VISIBILITY
$$



USA.gov is the U.S. government's official web portal to all federal, state and local government web resources and services.